Previsão horária em Sennaya

Hoje, 26 Novembro, Quinta-feira

Tempo Temperatura Precipitação Vento Pressão Humidade
00:00 +2°C° 0 mm 1 m/s 749 mmHg 94%
01:00 +2°C° 0 mm 1 m/s 749 mmHg 93%
02:00 +2°C° 0 mm 1 m/s 749 mmHg 93%
03:00 +1°C° 0 mm 2 m/s 749 mmHg 94%
04:00 +1°C° 0 mm 2 m/s 749 mmHg 94%
05:00 +1°C° 0 mm 2 m/s 749 mmHg 95%
06:00 +2°C° 0.2 mm 2 m/s 749 mmHg 96%
07:00 +1°C° 0.2 mm 3 m/s 749 mmHg 96%
08:00 +2°C° 0.2 mm 3 m/s 749 mmHg 97%
09:00 +2°C° 0.2 mm 3 m/s 748 mmHg 97%
10:00 +2°C° 0.2 mm 3 m/s 748 mmHg 97%
11:00 +3°C° 0.2 mm 3 m/s 748 mmHg 97%
12:00 +3°C° 0 mm 3 m/s 748 mmHg 96%
13:00 +4°C° 0 mm 4 m/s 747 mmHg 95%
14:00 +4°C° 0 mm 4 m/s 747 mmHg 94%
15:00 +4°C° 0 mm 4 m/s 747 mmHg 94%
16:00 +3°C° 0 mm 4 m/s 747 mmHg 93%
17:00 +2°C° 0 mm 5 m/s 746 mmHg 93%
18:00 +2°C° 0 mm 5 m/s 746 mmHg 91%
19:00 +1°C° 0 mm 5 m/s 746 mmHg 90%
20:00 0°C° 0 mm 5 m/s 745 mmHg 88%
21:00 0°C° 0 mm 5 m/s 745 mmHg 87%
22:00 -1°C° 0 mm 4 m/s 745 mmHg 86%
23:00 -1°C° 0 mm 4 m/s 745 mmHg 85%

Amanhã, 27 Novembro, Sexta-feira

Tempo Temperatura Precipitação Vento Pressão Humidade
00:00 -2°C° 0 mm 4 m/s 744 mmHg 86%
01:00 -2°C° 0 mm 4 m/s 744 mmHg 87%
02:00 -2°C° 0 mm 4 m/s 744 mmHg 88%
03:00 -2°C° 0 mm 4 m/s 743 mmHg 89%
04:00 -3°C° 0 mm 4 m/s 743 mmHg 90%
05:00 -3°C° 0 mm 4 m/s 743 mmHg 90%
06:00 -3°C° 0 mm 4 m/s 742 mmHg 90%
07:00 -3°C° 0 mm 4 m/s 742 mmHg 89%
08:00 -2°C° 0 mm 5 m/s 742 mmHg 88%
09:00 -2°C° 0 mm 4 m/s 742 mmHg 89%
10:00 -2°C° 0 mm 4 m/s 742 mmHg 89%
11:00 -1°C° 0 mm 4 m/s 741 mmHg 90%
12:00 -1°C° 0.1 mm 4 m/s 741 mmHg 91%
13:00 -1°C° 0.1 mm 5 m/s 741 mmHg 92%
14:00 0°C° 0.1 mm 5 m/s 741 mmHg 93%
15:00 0°C° 0 mm 5 m/s 741 mmHg 93%
16:00 0°C° 0 mm 4 m/s 740 mmHg 93%
17:00 0°C° 0 mm 4 m/s 740 mmHg 93%
18:00 0°C° 0.1 mm 4 m/s 741 mmHg 94%
19:00 0°C° 0.1 mm 4 m/s 741 mmHg 96%
20:00 0°C° 0.1 mm 4 m/s 741 mmHg 97%
21:00 +1°C° 0.1 mm 3 m/s 742 mmHg 94%
22:00 0°C° 0.1 mm 3 m/s 742 mmHg 92%
23:00 -1°C° 0.1 mm 3 m/s 742 mmHg 89%

Depois de amanhã, 28 Novembro, Sábado

Tempo Temperatura Precipitação Vento Pressão Humidade
00:00 -1°C° 0 mm 3 m/s 743 mmHg 91%
01:00 -2°C° 0 mm 2 m/s 743 mmHg 92%
02:00 -2°C° 0 mm 2 m/s 744 mmHg 93%
03:00 -2°C° 0 mm 2 m/s 744 mmHg 94%
04:00 -2°C° 0 mm 2 m/s 744 mmHg 95%
05:00 -2°C° 0 mm 2 m/s 744 mmHg 95%
06:00 -2°C° 0 mm 2 m/s 745 mmHg 95%
07:00 -2°C° 0 mm 2 m/s 745 mmHg 94%
08:00 -2°C° 0 mm 2 m/s 746 mmHg 93%
09:00 -1°C° 0 mm 2 m/s 746 mmHg 88%
10:00 -1°C° 0 mm 2 m/s 747 mmHg 83%
11:00 +1°C° 0 mm 2 m/s 747 mmHg 78%
12:00 +1°C° 0 mm 2 m/s 747 mmHg 77%
13:00 +1°C° 0 mm 2 m/s 748 mmHg 77%
14:00 +2°C° 0 mm 1 m/s 748 mmHg 76%
15:00 +2°C° 0 mm 1 m/s 748 mmHg 80%
16:00 +1°C° 0 mm 1 m/s 749 mmHg 85%
17:00 0°C° 0 mm 1 m/s 749 mmHg 89%
18:00 0°C° 0 mm 1 m/s 749 mmHg 91%
19:00 0°C° 0 mm 1 m/s 750 mmHg 92%
20:00 0°C° 0 mm 1 m/s 750 mmHg 94%
21:00 0°C° 0 mm 1 m/s 750 mmHg 94%
22:00 -2°C° 0 mm 2 m/s 750 mmHg 95%
23:00 -2°C° 0 mm 2 m/s 750 mmHg 95%

29 Novembro, Domingo

Tempo Temperatura Precipitação Vento Pressão Humidade
00:00 -2°C° 0 mm 2 m/s 750 mmHg 93%
01:00 -2°C° 0 mm 2 m/s 750 mmHg 92%
02:00 -2°C° 0 mm 3 m/s 750 mmHg 90%
03:00 -2°C° 0 mm 3 m/s 750 mmHg 89%
04:00 -2°C° 0 mm 3 m/s 749 mmHg 89%
05:00 -2°C° 0 mm 4 m/s 749 mmHg 88%
06:00 -2°C° 0.6 mm 4 m/s 749 mmHg 91%
07:00 -2°C° 0.6 mm 5 m/s 748 mmHg 94%
08:00 -2°C° 0.6 mm 5 m/s 748 mmHg 97%
09:00 -1°C° 0.7 mm 5 m/s 748 mmHg 96%
10:00 0°C° 0.7 mm 5 m/s 748 mmHg 96%
11:00 +1°C° 0.7 mm 5 m/s 748 mmHg 96%
12:00 +1°C° 0.9 mm 5 m/s 747 mmHg 96%
13:00 +1°C° 0.9 mm 5 m/s 747 mmHg 96%
14:00 +1°C° 0.9 mm 5 m/s 746 mmHg 96%
15:00 +1°C° 0.6 mm 5 m/s 746 mmHg 96%
16:00 +1°C° 0.6 mm 5 m/s 746 mmHg 96%
17:00 +1°C° 0.6 mm 5 m/s 746 mmHg 96%
18:00 +1°C° 0.4 mm 5 m/s 746 mmHg 96%
19:00 +1°C° 0.4 mm 5 m/s 747 mmHg 95%
20:00 +1°C° 0.4 mm 5 m/s 747 mmHg 95%
21:00 +1°C° 0.9 mm 4 m/s 747 mmHg 96%
22:00 +1°C° 0.9 mm 4 m/s 747 mmHg 96%
23:00 +2°C° 0.9 mm 3 m/s 747 mmHg 97%

30 Novembro, Segunda-feira

Tempo Temperatura Precipitação Vento Pressão Humidade
00:00 +1°C° 1 mm 3 m/s 747 mmHg 97%
01:00 0°C° 1 mm 4 m/s 748 mmHg 97%
02:00 -1°C° 1 mm 4 m/s 748 mmHg 97%
03:00 0°C° 0.2 mm 3 m/s 748 mmHg 95%
04:00 -1°C° 0.2 mm 3 m/s 748 mmHg 92%
05:00 -1°C° 0.2 mm 3 m/s 749 mmHg 90%
06:00 -2°C° 0 mm 3 m/s 749 mmHg 92%
07:00 -2°C° 0 mm 3 m/s 750 mmHg 93%
08:00 -4°C° 0 mm 3 m/s 751 mmHg 95%
09:00 -2°C° 0 mm 3 m/s 751 mmHg 92%
10:00 -2°C° 0 mm 3 m/s 752 mmHg 89%
11:00 -1°C° 0 mm 3 m/s 752 mmHg 87%
12:00 -1°C° 0 mm 3 m/s 752 mmHg 86%
13:00 -1°C° 0 mm 3 m/s 752 mmHg 86%
14:00 -1°C° 0 mm 3 m/s 753 mmHg 86%
15:00 -1°C° 0 mm 3 m/s 753 mmHg 88%
16:00 -2°C° 0 mm 3 m/s 753 mmHg 89%
17:00 -2°C° 0 mm 2 m/s 753 mmHg 91%
18:00 -2°C° 0 mm 2 m/s 754 mmHg 91%
19:00 -2°C° 0 mm 2 m/s 754 mmHg 91%
20:00 -2°C° 0 mm 2 m/s 754 mmHg 91%
21:00 -2°C° 0 mm 2 m/s 754 mmHg 91%
22:00 0°C° 0 mm 1 m/s 755 mmHg 91%
23:00 0°C° 0 mm 1 m/s 755 mmHg 90%

1 Dezembro, Terça-feira

Tempo Temperatura Precipitação Vento Pressão Humidade
00:00 0°C° 0 mm 1 m/s 755 mmHg 91%
01:00 0°C° 0 mm 1 m/s 755 mmHg 91%
02:00 -1°C° 0 mm 1 m/s 755 mmHg 91%
03:00 -1°C° 0 mm 1 m/s 755 mmHg 92%
04:00 -1°C° 0 mm 1 m/s 755 mmHg 92%
05:00 -2°C° 0 mm 0 m/s 755 mmHg 92%
06:00 -2°C° 0 mm 0 m/s 755 mmHg 92%
07:00 -2°C° 0 mm 0 m/s 755 mmHg 92%
08:00 -2°C° 0 mm 0 m/s 755 mmHg 92%
09:00 -1°C° 0 mm 0 m/s 756 mmHg 89%
10:00 -1°C° 0 mm 0 m/s 756 mmHg 85%
11:00 0°C° 0 mm 0 m/s 756 mmHg 82%
12:00 0°C° 0 mm 0 m/s 756 mmHg 82%
13:00 0°C° 0 mm 0 m/s 755 mmHg 81%
14:00 0°C° 0 mm 0 m/s 755 mmHg 81%
15:00 0°C° 0 mm 0 m/s 755 mmHg 85%
16:00 -1°C° 0 mm 0 m/s 755 mmHg 89%
17:00 -1°C° 0 mm 0 m/s 755 mmHg 93%
18:00 -1°C° 0.1 mm 0 m/s 755 mmHg 94%
19:00 -1°C° 0.1 mm 0 m/s 755 mmHg 95%
20:00 0°C° 0.1 mm 1 m/s 755 mmHg 96%
21:00 0°C° 0 mm 1 m/s 755 mmHg 96%
22:00 +1°C° 0 mm 1 m/s 755 mmHg 95%
23:00 +1°C° 0 mm 1 m/s 755 mmHg 95%
Mostrar mais

Necessitamos do seu Consentimento

A Meteoprog e os seus Fornecedores de Serviços podem armazenar e aceder a dados pessoais como cookies, identificadores do dispositivo ou outras tecnologias semelhantes existentes no seu dispositivo e processar estes dados para personalizar conteúdos e anúncios, assim como funcionalidades nas redes sociais e análise de tráfego.

  • Armazenar e/ou aceder a informações no seu dispositivo

    Os cookies, identificadores do dispositivo ou outras informações podem ser armazenados ou acedidos no seu dispositivo, para os fins acima indicados.

  • Anúncios e conteúdos personalizados, medição de anúncios e conteúdos, dados sobre o público-alvo e desenvolvimento de produtos

    Os anúncios e os conteúdos podem ser personalizados com base num perfil. Podem ser adicionados dados adicionais para uma maior personalização dos anúncios e dos conteúdos. A eficácia dos anúncios e dos conteúdos pode ser medida. Podem ser obtidas informações sobre o público que visualizou os anúncios e os conteúdos. Estes dados podem ser usados para desenvolver ou melhorar sistemas, softwares ou a experiência do utilizador.

Ao clicar em "Eu concordo”, permitirá o uso de cookies, identificadores do dispositivo e web beacons mencionados ou outras tecnologias semelhantes. As configurações do navegador do seu dispositivo podem ser alteradas.

Para certos fins, podem ser invocados interesses legítimos ao invés de consentimento. Pode ler mais informação sobre este assunto na nossa Política de Privacidade e Cookies.